{"data":{"norad_id":62155,"epoch":"2026-05-25T04:48:16.886880Z","epoch_age_seconds":60957,"freshness":"FRESH","line1":"1 62155U 24224S   26145.20019545  .00018846  00000+0  69233-3 0  9999","line2":"2 62155  42.9993  93.5885 0001328 260.8072  99.2630 15.27594342 83938","mean_motion":15.27594342,"eccentricity":0.0001328,"inclination_deg":42.9993,"raan_deg":93.5885,"arg_perigee_deg":260.8072,"mean_anomaly_deg":99.263,"bstar":0.00069233,"rev_number":8393,"period_min":94.265863679142,"perigee_km":482.09499145765,"apogee_km":483.91731107863,"semimajor_km":6861.1431512681,"source":"CELESTRAK","updated_at":"2026-05-25T13:38:19.595278Z"}}